weather.gov     
National Weather Service

Regional Weather Roundup
NWS Homepage
This page is being discontinued on March 12, 2014.
The same data is available at this site. Please update your bookmarks.
Thank you, and we apologize for the inconvenience.
Please send an email to SR-SRH.Webmaster@noaa.gov with any concerns.


Current Version
Previous Version:    01  02  03  04  05  06  07  08  09  10  11  12  13  14  15  16  17  18  19  20  21  22  23  24  25  26  27  28  29  30  
   31  32  33  34  35  36  37  38  39  40  41  42  43  44  45  46  47  48  49  50  51  52  53  54  55  56  57  58  59  60  
[Printable]
713
ASUS44 KOHX 221115
RWROHX
MIDDLE TENNESSEE HOURLY WEATHER ROUNDUP
NATIONAL WEATHER SERVICE NASHVILLE TN
600 AM CDT TUE JUL 22 2014

NOTE: "FAIR" INDICATES FEW OR NO CLOUDS BELOW 12,000 FEET WITH
NO SIGNIFICANT WEATHER AND/OR OBSTRUCTIONS TO VISIBILITY.

* THESE REPORTS ARE NOT UNDER NWS QUALITY CONTROL AND MAY NOT
  REPORT WEATHER SUCH AS PRECIPITATION AND FOG.


TNZ005>011-023>034-057-059-062>066-078-080-221200
...NORTHERN MIDDLE TENNESSEE...

CITY           SKY/WX    TMP DP  RH WIND       PRES   REMARKS
CLARKSVILLE    CLEAR     67  64  90 CALM      30.09R FOG
CROSSVILLE     PTCLDY    66  63  90 CALM      30.18R
GALLATIN         N/A     70  70 100 CALM      30.11R
DICKSON        CLEAR     66  66 100 SE3       30.10R
LEBANON        CLEAR     68  67  96 CALM      30.09R
LIVINGSTON     PTCLDY    69  66  90 SW3       30.15R
NASHVILLE      PTCLDY    72  70  93 CALM      30.10R
PORTLAND       CLEAR     70  70 100 S5        30.10R
SMYRNA         CLEAR     70  70 100 CALM      30.12R FOG
SPARTA         CLEAR     66  66 100 CALM      30.14R
$$
TNZ056-058-060-061-075>077-079-093>097-221200
...SOUTHERN MIDDLE TENNESSEE...

CITY           SKY/WX    TMP DP  RH WIND       PRES   REMARKS
COLUMBIA       CLOUDY    70  70 100 CALM      30.09R
FAYETTEVILLE   CLOUDY    70  70 100 CALM      30.11R
LEWISBURG      CLEAR     68  66  93 CALM      30.10R
MCMINNVILLE    MOCLDY    68  68 100 CALM      30.14R VSB 1/2
MURFREESBORO   CLEAR     70  69  96 SE5       30.10R
SHELBYVILLE    CLEAR     72  70  94 CALM      30.12R
TULLAHOMA      CLEAR     68  66  94 CALM      30.14R
WINCHESTER     MOCLDY    68  68 100 E3        30.13R
$$


...KEY TO REMARKS...
VSB - VISIBILITY IN MILES
WCI - WIND CHILL INDEX
HX  - HEAT INDEX





U.S. Dept. of Commerce
NOAA National Weather Service
1325 East West Highway
Silver Spring, MD 20910
E-mail: w-nws.webmaster@noaa.gov
Page last modified: May 16, 2007
NATIONAL WEATHER SERVICE: for Safety, for Work, for Fun - FOR LIFE